Date,TemperatureHighF,TemperatureAvgF,TemperatureLowF,DewpointHighF,DewpointAvgF,DewpointLowF,HumidityHigh,HumidityAvg,HumidityLow,PressureMaxIn,PressureMinIn,WindSpeedMaxMPH,WindSpeedAvgMPH,GustSpeedMaxMPH,PrecipitationSumIn
2013-1-1,24,14,6,15,8,2,86,77,55,30.75,30.24,24,9,27,0.00
2013-1-2,31,23,14,9,4,-100,62,46,34,30.64,30.29,20,-4,21,0.00
2013-1-3,42,33,25,20,8,-7,74,36,16,30.37,30.18,12,2,12,0.01
2013-1-4,40,34,29,24,16,8,73,48,36,30.36,30.19,11,2,11,0.02
2013-1-5,42,35,27,26,18,9,75,51,36,30.27,29.99,13,3,16,0.00
2013-1-6,29,23,19,22,18,9,89,79,47,30.29,29.93,22,4,26,0.02
2013-1-7,41,30,21,30,21,-100,89,73,46,30.40,30.17,16,-8,23,0.05
2013-1-8,45,38,31,32,28,18,86,66,44,30.32,30.15,12,2,14,0.01
2013-1-9,44,36,17,28,20,9,92,58,27,30.17,29.66,26,9,33,0.00
2013-1-10,17,14,12,14,8,5,87,79,68,30.18,29.77,28,12,33,0.00
2013-1-11,16,13,10,9,5,1,84,71,54,30.31,30.16,25,10,30,0.00
2013-1-12,20,11,5,11,2,-7,83,69,40,30.39,30.26,13,4,14,0.00
2013-1-13,12,9,6,5,-3,-14,74,57,32,30.41,30.30,11,4,11,0.00
2013-1-14,23,11,1,14,2,-7,83,66,35,30.74,30.49,20,9,24,0.00
2013-1-15,38,29,20,21,17,9,78,61,41,30.66,30.57,21,10,29,0.00
2013-1-16,37,30,27,18,12,4,67,48,31,30.70,30.53,19,9,23,0.00
2013-1-17,36,29,26,10,6,2,49,36,25,30.59,30.42,12,7,17,0.00
2013-1-18,40,31,25,12,4,-2,54,32,20,30.49,30.34,13,5,14,0.00
2013-1-19,40,32,26,8,2,-3,44,28,19,30.51,30.36,12,5,16,0.00
2013-1-20,38,31,25,12,3,-2,55,31,23,30.49,30.35,14,6,18,0.00
2013-1-21,47,39,31,12,4,-3,30,23,14,30.42,30.21,12,3,14,0.00
2013-1-22,49,42,34,17,7,-11,40,24,9,30.23,30.04,14,3,18,0.00
2013-1-23,47,40,33,27,8,-6,79,30,13,30.09,30.00,17,3,25,0.00
2013-1-24,38,35,32,35,32,28,93,89,80,30.25,30.03,6,1,9,0.21
2013-1-25,42,37,34,36,34,31,93,88,75,30.22,30.00,13,2,17,0.00
2013-1-26,40,33,26,32,26,19,93,76,50,30.01,29.82,34,10,34,0.01
2013-1-27,26,20,14,20,14,8,92,78,57,30.25,29.84,28,6,28,0.00
2013-1-28,24,20,14,20,13,5,89,74,63,30.37,30.19,25,6,26,0.00
2013-1-29,39,32,25,28,23,17,81,69,61,30.38,30.26,23,9,39,0.00
2013-1-30,36,36,36,26,26,26,68,68,67,30.32,30.32,7,7,12,0.00
2013-1-31,37,37,36,26,26,26,67,66,65,30.32,30.31,7,7,11,0.00
2013-2-1,38,38,37,26,26,26,65,64,63,30.31,30.30,7,6,10,0.00
2013-2-2,40,38,32,27,23,10,63,54,32,30.33,30.26,8,5,12,0.00
2013-2-3,46,36,29,25,19,13,79,50,28,30.28,30.15,9,3,14,0.00
2013-2-4,48,37,30,26,19,13,62,48,25,30.27,30.08,11,4,13,0.00
2013-2-5,45,37,29,20,11,-2,65,36,18,30.04,29.89,21,8,32,0.00
2013-2-6,43,32,24,18,2,-8,51,29,13,30.23,30.02,11,3,15,0.00
2013-2-7,32,30,26,21,0,-12,82,30,15,30.07,29.92,24,11,29,0.00
2013-2-8,25,19,15,17,12,8,86,76,58,30.04,29.95,9,2,14,0.00
2013-2-9,28,20,12,15,10,6,86,67,47,30.25,30.08,11,3,14,0.00
2013-2-10,28,23,20,16,13,8,77,66,53,30.23,30.13,20,5,27,0.00
2013-2-11,23,22,20,12,10,9,62,62,62,30.24,30.21,10,10,20,0.00
2013-2-12,26,25,23,15,13,12,62,61,61,30.26,30.24,9,9,19,0.00
2013-2-13,29,28,26,18,16,15,61,61,61,30.29,30.26,8,8,18,0.00
2013-2-14,37,31,29,24,20,18,74,63,60,30.47,30.29,12,7,22,0.00
2013-2-15,47,36,25,23,19,12,82,55,32,30.51,30.31,10,4,16,0.00
2013-2-16,44,37,33,20,12,2,49,36,23,30.32,30.12,13,2,17,0.00
2013-2-17,43,34,27,20,10,4,66,39,20,30.08,29.96,16,5,23,0.00
2013-2-18,40,32,27,19,12,2,69,45,22,30.06,29.74,25,7,31,0.00
2013-2-19,28,22,17,22,13,-100,90,74,38,29.78,29.59,31,-6,34,0.00
2013-2-20,32,23,17,16,13,4,87,67,38,30.10,29.76,15,3,21,0.01
2013-2-21,31,23,16,16,11,5,86,62,37,30.28,29.96,22,4,23,0.01
2013-2-22,40,28,22,22,2,-100,74,46,25,30.32,30.07,28,-97,33,0.01
2013-2-23,33,25,15,23,13,1,80,61,39,30.33,29.82,41,10,41,0.00
2013-2-24,36,24,13,11,6,0,78,50,26,30.46,30.29,23,7,24,0.00
2013-2-25,40,31,24,22,10,-2,78,44,18,30.30,30.13,32,10,35,0.00
2013-2-26,36,27,18,16,4,-6,68,40,16,30.44,30.17,15,4,20,0.00
2013-2-27,42,33,27,15,4,-4,52,30,18,30.44,30.29,20,4,22,0.00
2013-2-28,49,38,28,29,21,8,63,51,37,30.49,30.34,14,4,16,0.00
2013-3-1,54,44,35,27,25,20,70,49,28,30.47,30.25,14,3,15,0.00
2013-3-2,51,43,37,26,20,15,65,41,25,30.26,30.01,20,4,24,0.00
2013-3-3,37,32,28,30,29,26,94,89,65,30.14,29.95,16,4,26,0.12
2013-3-4,45,34,26,31,27,20,93,76,49,30.20,30.03,11,2,12,0.02
2013-3-5,44,35,30,26,22,12,84,58,39,30.03,29.64,29,7,38,0.00
2013-3-6,29,22,19,26,18,-100,93,86,79,30.14,29.69,30,-1,34,0.00
2013-3-7,28,24,20,25,20,16,90,87,83,30.10,29.92,14,3,16,0.01
2013-3-8,31,25,22,26,19,-100,90,85,75,30.06,29.86,14,-22,14,0.00
2013-3-9,37,28,22,22,8,-100,87,51,27,30.49,29.97,20,-43,24,0.01
2013-3-10,47,36,26,13,7,2,41,30,16,30.50,30.33,17,5,22,0.00
2013-3-11,58,44,33,20,10,4,35,24,16,30.34,30.10,12,2,12,0.00
2013-3-12,62,47,38,34,18,1,61,32,13,30.20,30.03,9,2,12,0.00
2013-3-13,59,50,39,33,23,10,62,38,16,30.19,30.03,15,4,17,0.00
2013-3-14,60,50,43,32,18,7,60,29,18,30.14,30.02,23,6,25,0.00
2013-3-15,53,46,41,28,17,5,55,32,20,30.14,29.97,21,7,22,0.00
2013-3-16,49,41,34,25,17,5,63,39,19,30.06,29.94,34,9,36,0.00
2013-3-17,47,38,31,22,12,0,59,35,17,30.11,29.98,24,10,25,0.00
2013-3-18,46,39,33,29,12,3,70,35,21,30.12,30.02,23,7,25,0.00
2013-3-19,46,38,32,32,27,12,91,65,38,30.11,30.02,30,8,30,0.00
2013-3-20,38,33,31,36,30,25,97,90,76,30.10,29.94,33,15,35,0.01
2013-3-21,44,35,28,28,18,-1,76,53,18,30.12,29.97,28,6,32,0.00
2013-3-22,44,32,26,22,3,-17,71,33,9,30.17,30.00,20,4,21,0.00
2013-3-23,45,32,18,21,10,0,55,40,16,30.25,30.08,27,6,29,0.00
2013-3-24,48,39,31,27,19,4,76,47,23,30.13,29.96,24,7,26,0.00
2013-3-25,51,40,35,26,8,-100,62,28,16,30.01,29.85,25,-4,29,0.00
2013-3-26,43,37,33,31,25,14,89,63,41,29.96,29.79,29,10,35,0.00
2013-3-27,48,37,32,33,29,24,88,72,41,30.01,29.90,23,6,27,0.00
2013-3-28,48,37,32,33,30,23,92,75,43,30.17,29.92,19,4,21,0.13
2013-3-29,52,42,32,38,30,26,86,64,38,30.24,30.05,11,2,13,0.01
2013-3-30,59,46,41,35,30,25,79,54,28,30.08,29.85,19,3,19,0.00
2013-3-31,42,35,29,35,30,24,94,82,53,30.09,29.81,19,6,21,0.06
2013-4-1,40,33,29,31,28,25,93,81,60,30.20,30.01,20,7,24,0.03
2013-4-2,55,40,29,34,28,20,90,66,27,30.23,30.07,13,2,15,0.01
2013-4-3,55,45,35,36,30,20,83,58,27,30.15,29.96,20,3,21,0.00
2013-4-4,46,40,33,36,28,12,93,66,26,30.07,29.86,29,7,30,0.08
2013-4-5,45,37,31,31,24,15,93,62,40,30.15,30.03,28,9,32,0.00
2013-4-6,46,38,32,29,24,15,72,58,43,30.14,30.02,30,11,36,0.00
2013-4-7,49,37,27,28,24,15,90,61,38,30.06,29.60,36,13,42,0.00
2013-4-8,32,26,23,25,20,13,91,78,48,30.18,29.52,23,6,28,0.03
2013-4-9,44,31,22,19,13,6,78,51,22,30.34,30.10,31,8,36,0.00
2013-4-10,60,45,33,34,23,14,65,43,25,30.30,29.89,27,8,28,0.00
2013-4-11,56,44,34,35,31,18,92,64,35,30.02,29.79,18,4,20,0.00
2013-4-12,59,45,35,36,25,20,70,48,24,29.97,29.80,27,7,27,0.00
2013-4-13,52,46,38,32,23,6,73,42,20,29.79,29.64,37,15,40,0.00
2013-4-14,47,39,33,29,25,20,75,57,38,29.78,29.61,46,16,48,0.00
2013-4-15,38,29,21,26,20,10,90,70,34,29.87,29.60,34,11,40,0.00
2013-4-16,28,22,19,19,16,7,89,78,50,30.31,29.83,16,3,23,0.04
2013-4-17,36,26,17,17,11,4,87,55,32,30.45,30.26,29,6,29,0.03
2013-4-18,54,38,26,16,10,4,45,32,19,30.41,30.25,16,4,21,0.00
2013-4-19,51,42,34,30,22,13,67,46,31,30.28,30.08,29,9,32,0.00
2013-4-20,65,47,32,31,23,-3,72,44,9,30.17,29.97,11,2,13,0.00
2013-4-21,61,50,39,37,25,14,60,40,23,30.06,29.90,21,4,21,0.00
2013-4-22,66,50,36,33,23,8,66,38,14,30.06,29.84,21,4,25,0.00
2013-4-23,63,42,28,28,9,0,46,26,15,30.17,29.92,26,6,30,0.00
2013-4-24,56,44,34,10,3,-5,23,18,14,30.06,29.84,22,6,28,0.00
2013-4-25,59,48,40,26,15,3,42,27,19,30.06,29.87,19,4,21,0.00
2013-4-26,67,53,42,34,23,6,54,34,10,30.17,30.03,15,3,18,0.00
2013-4-27,63,54,46,36,30,21,57,42,22,30.18,30.03,21,5,25,0.00
2013-4-28,64,54,45,37,26,9,57,36,14,30.06,29.89,17,4,19,0.00
2013-4-29,63,54,46,39,32,27,56,44,28,29.89,29.71,29,8,30,0.00
2013-4-30,65,50,37,35,22,-9,70,38,13,30.04,29.67,22,3,26,0.00
2013-5-1,54,40,30,4,-3,-10,23,16,10,30.42,30.00,28,9,33,0.00
2013-5-2,66,49,34,30,8,-6,45,20,13,30.42,30.11,18,5,25,0.00
2013-5-3,68,55,45,36,22,5,54,31,11,30.11,29.80,16,2,16,0.00
2013-5-4,58,47,40,29,20,6,58,35,16,29.83,29.61,22,6,27,0.00
2013-5-5,56,42,35,39,34,25,93,74,44,29.79,29.61,16,4,21,0.10
2013-5-6,39,34,32,36,32,29,97,93,87,30.01,29.69,19,6,23,0.67
2013-5-7,37,34,31,36,32,29,95,94,91,30.07,29.96,20,8,21,0.43
2013-5-8,58,42,34,42,36,32,95,83,48,30.11,29.96,11,3,14,0.07
2013-5-9,64,50,39,42,38,32,92,67,31,30.13,29.98,21,2,23,0.01
2013-5-10,71,57,44,42,35,28,72,47,23,30.12,30.02,12,1,15,0.00
2013-5-11,77,60,49,42,35,21,65,44,13,30.13,29.99,17,3,21,0.00
2013-5-12,67,58,49,36,32,25,53,38,25,30.14,29.98,28,8,29,0.00
2013-5-13,68,60,53,32,27,21,42,29,22,30.04,29.88,26,7,30,0.00
2013-5-14,68,56,48,42,33,26,71,43,22,29.89,29.81,21,5,23,0.00
2013-5-15,62,52,44,39,24,10,68,36,15,29.92,29.83,31,9,31,0.00
2013-5-16,48,41,37,35,31,24,85,68,46,29.93,29.81,26,8,28,0.00
2013-5-17,50,41,35,32,25,-100,83,59,36,30.03,29.81,27,-15,33,0.00
2013-5-18,52,43,34,31,25,14,80,50,27,30.13,30.01,30,10,34,0.00
2013-5-19,64,47,35,33,26,14,84,50,20,30.17,30.00,19,3,23,0.00
2013-5-20,69,51,38,32,24,17,50,36,17,30.12,29.88,27,7,27,0.00
2013-5-21,58,50,42,30,21,6,50,33,18,29.88,29.67,40,16,41,0.00
2013-5-22,52,41,32,20,11,0,58,30,15,29.83,29.63,29,10,33,0.00
2013-5-23,45,37,28,23,16,4,65,44,24,30.04,29.77,28,7,31,0.00
2013-5-24,59,44,33,28,20,4,80,42,12,30.00,29.85,27,8,28,0.00
2013-5-25,53,44,37,32,22,7,73,43,23,29.94,29.82,24,10,28,0.00
2013-5-26,53,44,37,34,26,22,77,50,33,30.03,29.90,28,10,32,0.00
2013-5-27,50,42,38,37,27,10,89,58,24,30.01,29.83,23,8,28,0.03
2013-5-28,50,44,38,38,34,28,92,71,43,29.91,29.79,28,12,31,0.04
2013-5-29,54,46,40,38,32,23,88,60,38,29.91,29.72,34,12,37,0.01
2013-5-30,60,48,37,36,27,7,92,49,14,29.98,29.86,25,7,28,0.00
2013-5-31,71,56,42,30,21,12,56,30,12,30.07,29.93,18,4,23,0.00
2013-6-1,76,61,50,39,24,13,53,26,13,29.97,29.72,16,5,23,0.00
2013-6-2,69,60,53,40,33,26,52,36,23,29.73,29.61,25,7,29,0.00
2013-6-3,78,63,51,44,28,21,51,28,16,29.80,29.65,16,3,20,0.00
2013-6-4,80,65,56,44,26,12,49,25,9,29.79,29.67,16,4,17,0.00
2013-6-5,82,68,58,44,28,16,49,24,10,29.87,29.74,13,3,15,0.00
2013-6-6,82,68,58,45,35,14,56,32,9,29.82,29.71,20,4,23,0.00
2013-6-7,80,69,60,44,32,20,48,28,13,29.86,29.71,18,4,22,0.00
2013-6-8,88,74,62,39,33,19,38,23,13,29.77,29.64,16,3,20,0.00
2013-6-9,87,70,60,53,34,22,76,30,15,29.74,29.51,19,3,25,0.06
2013-6-10,64,56,50,53,42,28,83,60,28,29.76,29.51,27,9,27,0.00
2013-6-11,66,56,49,38,31,25,61,40,27,29.88,29.75,25,8,30,0.00
2013-6-12,67,57,47,34,28,14,51,34,25,29.83,29.74,30,9,38,0.00
2013-6-13,59,51,44,28,7,-13,44,18,8,30.04,29.79,31,8,33,0.00
2013-6-14,68,52,39,26,22,14,51,32,20,30.03,29.84,19,4,24,0.00
2013-6-15,66,57,49,33,23,14,50,28,16,29.88,29.74,28,7,30,0.00
2013-6-16,64,54,43,35,26,11,56,37,16,30.02,29.85,28,9,32,0.00
2013-6-17,65,55,46,36,28,18,60,38,20,30.00,29.84,26,8,31,0.00
2013-6-18,60,50,39,30,22,16,58,35,24,29.84,29.73,32,12,35,0.00
2013-6-19,53,44,36,30,15,2,67,32,19,29.99,29.75,30,11,30,0.00
2013-6-20,56,47,38,32,25,16,66,43,25,29.97,29.88,27,8,29,0.00
2013-6-21,60,51,38,34,29,18,71,46,21,29.98,29.89,22,5,25,0.00
2013-6-22,73,57,45,34,29,22,53,35,19,29.92,29.71,22,5,24,0.00
2013-6-23,58,51,44,39,32,20,77,49,28,29.75,29.66,32,8,33,0.00
2013-6-24,49,45,43,44,39,28,95,82,53,29.87,29.63,27,8,27,0.13
2013-6-25,54,50,45,50,46,44,95,87,76,29.94,29.81,22,6,23,0.05
2013-6-26,69,58,49,51,46,42,84,65,40,29.99,29.91,23,9,28,0.00
2013-6-27,75,66,55,50,44,38,67,47,28,30.03,29.92,19,4,24,0.00
2013-6-28,88,71,61,54,43,34,58,40,15,29.99,29.77,23,3,23,0.01
2013-6-29,80,70,60,51,43,35,64,41,21,29.91,29.75,21,5,25,0.00
2013-6-30,85,73,63,50,42,30,53,34,14,29.79,29.65,19,4,22,0.00
2013-7-1,81,72,65,48,40,33,48,32,18,29.89,29.70,28,3,32,0.00
2013-7-2,88,72,64,51,42,34,57,35,19,29.94,29.73,20,4,23,0.00
2013-7-3,88,71,60,50,45,32,58,41,22,29.92,29.67,16,3,17,0.00
2013-7-4,84,70,62,54,47,42,60,45,28,29.76,29.57,29,6,31,0.00
2013-7-5,79,68,60,50,32,17,62,31,12,29.62,29.56,22,5,29,0.00
2013-7-6,76,66,59,35,27,17,39,23,18,29.67,29.57,23,5,32,0.00
2013-7-7,76,65,57,38,30,23,42,28,18,29.75,29.62,24,6,33,0.00
2013-7-8,78,67,60,35,26,17,30,21,12,29.88,29.70,28,6,30,0.00
2013-7-9,72,65,57,38,28,21,42,25,20,29.98,29.84,26,9,30,0.00
2013-7-10,77,65,54,34,30,23,42,27,16,29.95,29.77,22,5,28,0.00
2013-7-11,72,63,57,41,33,24,44,32,20,29.82,29.71,33,8,33,0.00
2013-7-12,70,61,54,38,28,21,42,29,19,29.86,29.77,29,9,30,0.00
2013-7-13,71,61,53,39,26,13,44,26,15,29.92,29.79,21,7,28,0.00
2013-7-14,77,65,55,41,34,25,58,32,18,29.90,29.74,21,4,24,0.00
2013-7-15,79,64,57,43,38,29,49,38,17,29.79,29.61,22,5,25,0.00
2013-7-16,70,62,55,39,32,27,50,34,21,29.87,29.61,30,10,33,0.00
2013-7-17,78,64,52,40,27,12,45,26,13,29.99,29.85,16,4,22,0.00
2013-7-18,88,70,58,44,32,16,46,27,9,29.92,29.76,20,4,21,0.00
2013-7-19,88,73,61,44,36,20,46,28,9,29.84,29.66,20,4,22,0.00
2013-7-20,91,75,65,47,36,24,39,25,9,29.74,29.55,16,3,18,0.00
2013-7-21,84,74,67,49,42,29,45,33,14,29.68,29.53,22,5,26,0.00
2013-7-22,82,69,60,51,43,38,69,40,25,29.84,29.63,19,7,27,0.02
2013-7-23,74,64,60,49,44,38,59,49,29,29.92,29.74,18,5,20,0.00
2013-7-24,74,65,57,48,44,39,68,49,32,29.92,29.80,20,5,22,0.00
2013-7-25,82,66,60,57,46,39,80,52,23,29.99,29.80,38,2,40,0.03
2013-7-26,74,65,57,51,47,43,72,53,35,30.04,29.84,28,7,31,0.00
2013-7-27,77,66,59,50,42,30,65,43,21,29.93,29.74,24,6,25,0.00
2013-7-28,72,64,58,40,36,32,48,36,25,29.78,29.68,24,6,28,0.00
2013-7-29,74,63,58,38,34,25,46,35,20,29.89,29.75,24,6,27,0.00
2013-7-30,72,62,53,40,35,28,54,38,22,30.01,29.85,29,7,30,0.00
2013-7-31,69,61,55,40,35,31,54,38,27,29.95,29.84,27,9,32,0.00
2013-8-1,68,57,51,36,24,13,52,30,14,29.94,29.83,28,9,31,0.00
2013-8-2,68,58,48,35,22,12,50,27,14,29.92,29.80,22,5,26,0.00
2013-8-3,72,60,51,41,34,26,66,40,19,29.90,29.80,20,4,23,0.00
2013-8-4,75,63,52,39,33,19,57,35,16,29.92,29.80,20,5,25,0.00
2013-8-5,73,62,53,40,30,13,54,32,13,29.93,29.82,22,6,26,0.00
2013-8-6,77,63,54,40,33,18,53,35,13,29.91,29.78,19,6,24,0.00
2013-8-7,66,58,51,40,35,28,61,42,26,29.92,29.77,26,11,30,0.00
2013-8-8,65,56,49,40,35,23,61,47,23,29.89,29.79,21,6,23,0.00
2013-8-9,66,56,49,39,34,26,59,45,24,29.87,29.75,30,5,32,0.00
2013-8-10,65,55,47,39,28,21,58,36,22,29.97,29.84,28,8,31,0.00
2013-8-11,69,58,49,40,31,22,60,37,20,29.96,29.83,27,5,29,0.00
2013-8-12,69,60,51,38,31,19,57,35,19,29.93,29.82,31,6,31,0.00
2013-8-13,74,62,53,34,28,20,43,28,16,29.97,29.83,24,4,26,0.00
2013-8-14,77,64,55,36,26,10,47,24,10,29.93,29.76,22,5,27,0.00
2013-8-15,73,64,56,40,22,11,53,21,10,29.90,29.76,25,7,29,0.00
2013-8-16,73,63,56,34,22,12,34,21,14,29.96,29.83,24,8,26,0.00
2013-8-17,75,66,57,40,35,30,42,33,22,29.92,29.76,20,3,22,0.00
2013-8-18,84,70,59,38,32,26,41,26,13,29.85,29.73,17,3,19,0.00
2013-8-19,75,67,62,48,41,36,53,38,30,29.87,29.70,15,2,15,0.00
2013-8-20,76,65,60,54,41,34,65,43,24,29.85,29.72,21,4,26,0.06
2013-8-21,78,61,54,58,46,38,88,60,25,29.94,29.76,15,3,26,0.29
2013-8-22,71,62,54,46,38,28,70,44,21,29.95,29.76,18,3,21,0.00
2013-8-23,66,59,54,37,30,22,47,34,23,29.83,29.72,21,5,28,0.00
2013-8-24,66,57,50,38,28,16,56,33,20,29.82,29.71,21,6,26,0.00
2013-8-25,65,56,50,40,33,26,66,43,32,29.89,29.77,23,4,27,0.00
2013-8-26,68,58,52,41,34,27,58,41,24,29.95,29.81,21,5,25,0.00
2013-8-27,70,60,54,43,34,24,59,40,25,29.86,29.73,16,3,21,0.00
2013-8-28,70,61,54,48,43,36,69,53,39,29.86,29.75,20,4,24,0.00
2013-8-29,71,62,55,40,36,28,55,38,22,29.98,29.79,25,4,26,0.00
2013-8-30,77,65,57,38,31,25,37,28,15,30.01,29.85,23,6,25,0.00
2013-8-31,75,66,61,38,32,25,38,28,22,29.91,29.77,25,8,25,0.00
2013-9-1,69,61,57,47,38,25,67,44,26,29.85,29.73,17,6,19,0.00
2013-9-2,68,61,56,48,46,42,70,59,39,29.84,29.73,22,4,22,0.00
2013-9-3,71,62,56,46,44,39,69,52,34,29.87,29.75,23,5,28,0.00
2013-9-4,72,62,56,46,43,39,61,50,33,29.91,29.80,19,4,22,0.00
2013-9-5,69,60,54,42,36,28,58,42,25,29.89,29.78,31,6,32,0.00
2013-9-6,73,62,52,39,36,32,56,39,25,29.96,29.78,19,4,21,0.00
2013-9-7,71,62,55,39,32,27,51,33,21,29.88,29.78,23,4,24,0.00
2013-9-8,72,62,52,40,31,24,58,32,20,29.90,29.77,24,5,27,0.00
2013-9-9,78,65,56,32,29,22,37,26,15,29.84,29.64,15,3,17,0.00
2013-9-10,77,64,55,37,28,20,42,27,13,29.79,29.66,14,3,18,0.00
2013-9-11,74,62,56,41,35,26,52,38,19,29.89,29.71,19,4,21,0.00
2013-9-12,71,60,52,50,40,33,91,50,29,29.91,29.75,17,4,22,0.10
2013-9-13,74,58,50,53,47,39,94,72,29,29.93,29.74,14,3,18,0.01
2013-9-14,76,62,55,47,43,37,68,51,25,29.77,29.63,20,3,20,0.00
2013-9-15,72,62,55,42,34,26,54,36,23,29.76,29.59,23,5,29,0.00
2013-9-16,71,60,52,41,32,27,58,37,22,29.81,29.66,22,6,30,0.00
2013-9-17,59,51,43,37,28,18,65,42,22,29.83,29.58,32,10,36,0.00
2013-9-18,61,48,36,34,28,18,82,50,24,30.00,29.83,16,4,20,0.00
2013-9-19,69,55,43,26,24,18,47,31,18,29.95,29.75,16,4,17,0.00
2013-9-20,67,56,45,32,23,16,54,29,18,29.76,29.62,29,5,33,0.00
2013-9-21,51,40,32,39,31,18,94,72,34,29.83,29.62,31,8,33,0.31
2013-9-22,51,40,32,37,32,20,92,73,33,30.03,29.83,26,7,31,0.01
2013-9-23,64,51,40,39,30,-3,91,52,11,30.05,29.90,17,4,22,0.01
2013-9-24,57,51,39,35,21,-10,71,36,9,29.89,29.68,32,12,39,0.00
2013-9-25,41,36,28,29,23,16,87,60,38,29.88,29.68,26,8,34,0.00
2013-9-26,44,33,26,27,23,18,87,68,41,30.12,29.84,16,3,22,0.00
2013-9-27,55,40,28,25,19,-100,78,50,16,30.20,30.06,13,-14,15,0.00
2013-9-28,60,49,40,30,24,18,53,38,27,30.10,29.96,23,9,28,0.00
2013-9-29,56,49,44,30,26,18,53,41,29,29.97,29.85,34,14,41,0.00
2013-9-30,55,49,45,36,30,18,63,49,31,29.98,29.85,26,9,33,0.00
2013-10-1,60,51,45,38,30,19,72,47,21,29.91,29.82,25,9,31,0.00
2013-10-2,53,46,39,30,18,1,55,34,17,29.92,29.82,31,8,34,0.00
2013-10-3,42,36,30,21,15,7,64,42,26,30.22,29.88,26,8,36,0.00
2013-10-4,45,34,26,19,15,11,69,46,27,30.43,30.21,33,12,38,0.00
2013-10-5,56,42,30,15,13,6,53,32,16,30.47,30.27,21,7,28,0.00
2013-10-6,64,52,44,28,17,6,40,25,14,30.27,29.96,13,4,17,0.00
2013-10-7,61,51,44,21,12,0,39,22,13,30.00,29.83,20,8,23,0.00
2013-10-8,57,46,40,22,16,2,48,31,17,29.89,29.58,18,4,21,0.00
2013-10-9,40,34,29,32,27,17,94,78,44,29.86,29.52,17,4,19,0.06
2013-10-10,47,39,31,32,28,24,84,68,43,30.02,29.85,26,5,28,0.08
2013-10-11,52,42,35,33,26,8,74,55,21,30.08,29.94,18,4,20,0.00
2013-10-12,52,41,35,29,23,12,74,50,27,30.00,29.80,25,7,32,0.00
2013-10-13,44,27,31,35,-3,-100,93,58,58,30.23,29.82,14,-241,16,0.03
2013-10-14,48,27,30,30,-15,-100,83,38,39,30.30,29.81,16,-314,17,0.00
2013-10-15,45,37,30,24,20,14,69,52,35,30.27,30.14,23,8,28,0.00
2013-10-16,56,43,32,30,21,13,59,43,24,30.27,30.07,19,6,20,0.00
2013-10-17,58,39,38,34,4,-100,78,37,17,30.12,29.92,13,-159,14,0.00
2013-10-18,58,22,39,20,-49,-100,45,12,18,30.18,29.85,14,-559,18,0.00
2013-10-19,61,17,42,30,-59,-100,50,11,18,30.18,29.86,10,-669,13,0.00
2013-10-20,64,19,47,20,-62,-100,32,6,12,30.06,29.77,10,-670,14,0.00
2013-10-21,58,19,44,17,-59,-100,29,8,18,30.09,29.76,14,-641,17,0.00
2013-10-22,66,19,45,24,-60,-100,34,8,15,30.11,29.77,6,-666,7,0.00
2013-10-23,63,17,51,19,-66,-100,26,6,16,29.94,29.70,11,-714,12,0.00
2013-10-24,65,18,44,21,-62,-100,31,8,12,30.05,29.73,11,-670,12,0.00
2013-10-25,60,17,43,22,-63,-100,34,8,12,30.20,29.79,6,-678,9,0.00
2013-10-26,60,18,46,15,-64,-100,24,6,16,30.18,29.89,10,-679,12,0.00
2013-10-27,54,16,45,19,-64,-100,28,7,20,29.95,29.11,36,-680,41,0.00
2013-10-28,29,6,27,27,-73,-100,91,19,87,29.79,29.02,20,-782,22,0.00
2013-10-29,31,3,29,26,-89,-100,84,7,82,30.06,29.34,17,-906,17,0.00
2013-10-30,-200,0,200,-100,-100,-100,0,0,100,30.04,29.58,0,-999,0,0.00
2013-10-31,50,39,34,50,14,-100,74,41,31,30.27,29.79,10,-174,14,0.01
2013-11-1,54,48,36,50,35,25,65,49,38,30.31,29.84,8,1,11,0.00
2013-11-2,50,49,41,50,36,12,50,42,26,30.06,29.56,19,4,27,0.00
2013-11-3,50,38,25,50,29,10,85,55,48,30.13,29.52,15,4,21,0.00
2013-11-4,35,27,22,16,13,10,67,54,42,30.26,29.99,21,6,26,0.00
2013-11-5,47,36,24,19,12,6,62,39,24,30.36,30.22,15,3,19,0.00
2013-11-6,58,45,37,31,21,14,65,40,24,30.36,30.14,10,2,12,0.00
2013-11-7,53,46,41,31,16,8,68,31,18,30.18,29.99,31,8,31,0.00
2013-11-8,54,46,41,23,17,10,45,32,22,30.06,29.91,23,7,26,0.00
2013-11-9,54,46,40,26,20,14,54,36,26,30.08,29.94,14,2,14,0.00
2013-11-10,57,48,42,22,10,-9,31,22,10,30.14,30.01,11,2,12,0.00
2013-11-11,58,50,43,22,8,-9,35,18,10,30.18,30.03,11,2,11,0.00
2013-11-12,59,50,43,27,17,5,41,28,15,30.26,30.09,16,2,22,0.00
2013-11-13,55,46,40,29,24,14,59,44,28,30.26,30.10,16,3,20,0.00
2013-11-14,52,42,35,30,22,17,64,47,26,30.14,29.71,23,7,28,0.00
2013-11-15,37,32,27,28,25,22,91,77,57,29.86,29.68,22,6,24,0.00
2013-11-16,42,36,32,28,22,14,69,57,40,29.87,29.65,28,11,32,0.00
2013-11-17,49,40,32,29,24,17,81,55,33,30.10,29.88,11,4,14,0.00
2013-11-18,43,38,34,30,27,20,82,65,44,30.05,29.95,28,10,31,0.00
2013-11-19,42,37,33,33,30,26,90,77,63,30.06,29.89,26,8,33,0.01
2013-11-20,39,34,31,33,31,29,93,89,75,29.90,29.83,16,4,19,0.02
2013-11-21,30,21,17,28,18,14,93,89,87,30.43,29.85,16,5,22,0.00
2013-11-22,24,19,13,14,11,8,87,70,54,30.55,30.32,30,9,40,0.00
2013-11-23,32,26,22,9,6,2,56,42,29,30.35,30.24,30,9,33,0.00
2013-11-24,38,30,25,13,9,5,50,41,27,30.41,30.24,13,5,16,0.00
2013-11-25,45,36,30,17,12,8,48,37,22,30.43,30.26,14,4,16,0.00
2013-11-26,49,41,37,29,17,10,62,38,27,30.32,30.02,9,2,10,0.00
2013-11-27,49,39,32,26,20,14,68,48,29,30.02,29.85,8,2,10,0.00
2013-11-28,39,33,30,26,24,22,82,70,57,30.18,29.90,15,3,15,0.00
2013-11-29,41,34,28,27,24,21,85,70,49,30.35,30.16,14,3,16,0.00
2013-11-30,48,37,31,27,21,12,81,55,28,30.36,30.20,10,3,14,0.00
2013-12-1,50,40,32,26,21,11,78,49,23,30.44,30.26,13,4,15,0.00
2013-12-2,48,42,36,30,16,3,79,36,19,30.26,29.72,38,14,40,0.00
2013-12-3,36,21,9,31,18,5,92,86,75,29.98,29.63,29,8,33,0.00
2013-12-4,15,10,8,10,6,4,84,82,79,30.25,29.97,13,5,16,0.00
2013-12-5,20,12,5,11,4,-4,85,69,41,30.29,30.16,18,5,20,0.00
2013-12-6,23,18,15,16,-3,-20,89,45,17,30.18,29.73,28,9,33,0.00
2013-12-7,19,12,7,15,8,3,87,84,81,30.31,29.73,27,10,33,0.00
2013-12-8,13,7,4,9,2,-1,84,81,79,30.59,30.30,13,4,15,0.00
2013-12-9,26,14,4,18,6,0,82,71,47,30.78,30.57,21,7,22,0.00
2013-12-10,37,28,23,19,11,3,82,50,26,30.57,30.28,14,5,14,0.00
2013-12-11,31,26,20,14,10,8,61,52,42,30.47,30.30,14,5,15,0.00
2013-12-12,41,33,27,23,14,-4,86,48,18,30.42,30.19,15,4,19,0.00
2013-12-13,40,31,23,17,8,-3,67,40,22,30.49,30.15,19,6,20,0.00
2013-12-14,48,34,24,18,10,-6,67,41,14,30.62,30.43,13,3,15,0.00
2013-12-15,53,44,36,27,11,2,41,26,15,30.45,30.25,6,1,7,0.00
2013-12-16,54,45,40,22,8,2,47,21,16,30.34,30.24,10,2,14,0.00
2013-12-17,49,44,40,30,17,9,54,33,25,30.30,30.09,12,2,12,0.00
2013-12-18,51,42,32,30,21,10,61,45,22,30.08,29.59,22,6,28,0.00
2013-12-19,32,21,14,23,17,9,93,84,54,30.17,29.54,25,7,28,0.00
2013-12-20,36,24,12,27,12,-11,88,66,14,30.26,30.02,21,5,21,0.00
2013-12-21,40,34,29,29,25,22,84,71,56,30.19,29.96,23,5,23,0.00
2013-12-22,43,35,29,30,25,16,83,68,50,30.42,30.17,19,6,23,0.00
2013-12-23,46,38,32,30,22,9,81,56,27,30.52,30.35,9,3,10,0.00
2013-12-24,43,36,28,27,22,12,91,59,33,30.49,30.33,14,5,18,0.00
2013-12-25,43,34,28,27,17,5,95,53,24,30.56,30.39,14,4,16,0.00
2013-12-26,54,42,34,17,2,-6,29,19,10,30.48,30.23,11,2,11,0.00
2013-12-27,45,39,34,23,8,-9,45,29,12,30.37,30.14,13,4,15,0.00
2013-12-28,39,32,25,18,8,-4,74,39,16,30.38,30.10,21,7,26,0.00
2013-12-29,38,30,22,18,10,-4,79,47,18,30.46,30.29,17,5,19,0.00
2013-12-30,48,40,34,24,13,0,51,33,17,30.35,30.17,17,6,19,0.00
2013-12-31,48,41,37,12,5,-2,31,22,16,30.27,30.12,15,5,17,0.00
2014-1-1,50,39,34,20,11,2,50,33,21,30.31,30.14,14,3,16,0.00
2014-1-2,50,40,32,26,20,16,71,47,30,30.28,30.09,7,1,8,0.00